Location: Nashville
(36.1660°N, 86.7840°W)
Time: 02:06:22
(UTC-06:00)

Tiros 1 despin weight - All Passes

Search period start: 28 January 2022 00:00
Search period end: 07 February 2022 00:00
Orbit: 592 x 641 km, 48.2° (Epoch: 28 January)

Date Brightness Start Highest point End Pass type
(mag) Time Alt. Az. Time Alt. Az. Time Alt. Az.
28 Jan - 14:18:16 10° SW 14:22:35 51° SE 14:27:00 10° ENE daylight
28 Jan - 16:00:07 10° W 16:04:15 34° NNW 16:08:27 10° NE daylight
28 Jan - 17:43:37 10° NW 17:46:49 18° N 17:50:02 10° NE visible
28 Jan - 19:25:49 10° NW 19:29:35 24° NNE 19:33:21 10° ENE visible
28 Jan - 21:07:01 10° NW 21:11:41 75° NNE 21:16:22 10° ESE visible
28 Jan - 22:49:35 10° W 22:52:49 19° SW 22:56:04 10° S night (unlit)
29 Jan - 12:54:52 10° SSE 12:57:34 16° SE 13:00:16 10° E daylight
29 Jan - 14:34:07 10° WSW 14:38:35 81° NW 14:43:09 10° NE daylight
29 Jan - 16:16:55 10° WNW 16:20:38 24° NNW 16:24:24 10° NE daylight
29 Jan - 18:00:12 10° NW 18:03:23 18° N 18:06:35 10° NE visible
29 Jan - 19:41:47 10° NW 19:45:58 33° NNE 19:50:12 10° E visible
29 Jan - 21:23:08 10° WNW 21:27:43 58° SW 21:32:18 10° SE night (unlit)
30 Jan - 13:09:21 10° SSW 13:13:19 33° SE 13:17:21 10° ENE daylight
30 Jan - 14:50:26 10° WSW 14:54:44 45° NNW 14:59:07 10° NE daylight
30 Jan - 16:33:49 10° NW 16:37:07 19° N 16:40:29 10° NE daylight
30 Jan - 18:16:27 10° NW 18:19:55 21° NNE 18:23:25 10° ENE visible
30 Jan - 19:57:41 10° NW 20:02:14 53° NNE 20:06:48 10° ESE visible
30 Jan - 21:39:36 10° WNW 21:43:35 29° SW 21:47:36 10° SSE night (unlit)
31 Jan - 13:24:49 10° SW 13:29:13 68° SE 13:33:43 10° ENE daylight
31 Jan - 15:07:06 10° W 15:11:02 29° NNW 15:15:02 10° NE daylight
31 Jan - 16:50:34 10° NW 16:53:41 18° N 16:56:49 10° NE daylight
31 Jan - 18:32:28 10° NW 18:36:23 26° NNE 18:40:19 10° ENE visible
31 Jan - 20:13:42 10° NW 20:18:20 86° SW 20:23:01 10° SE visible
31 Jan - 21:56:57 10° W 21:59:20 14° SW 22:01:45 10° SSW night (unlit)
01 Feb - 12:00:47 10° S 12:04:06 21° SE 12:07:28 10° E daylight
01 Feb - 13:40:52 10° WSW 13:45:17 64° NNW 13:49:47 10° NE daylight
01 Feb - 15:23:57 10° WNW 15:27:27 22° NNW 15:31:00 10° NE daylight
01 Feb - 17:07:00 10° NW 17:10:14 19° N 17:13:30 10° NE daylight
01 Feb - 18:48:24 10° NW 18:52:43 39° NNE 18:57:05 10° E visible
01 Feb - 20:29:54 10° WNW 20:34:18 44° SW 20:38:44 10° SSE visible
02 Feb - 12:15:44 10° SSW 12:19:55 43° SE 12:24:10 10° ENE daylight
02 Feb - 13:57:19 10° W 14:01:29 37° NNW 14:05:42 10° NE daylight
02 Feb - 15:40:48 10° NW 15:43:58 18° N 15:47:10 10° NE daylight
02 Feb - 17:23:09 10° NW 17:26:45 22° NNE 17:30:23 10° ENE daylight
02 Feb - 19:04:20 10° NW 19:08:55 66° NNE 19:13:33 10° ESE visible
02 Feb - 20:46:35 10° W 20:50:08 22° SW 20:53:41 10° S visible
03 Feb - 10:52:52 10° SSE 10:54:56 13° SE 10:57:00 10° E daylight
03 Feb - 12:31:27 10° SW 12:35:52 87° SE 12:40:23 10° NE daylight
03 Feb - 14:14:05 10° WNW 14:17:50 25° NNW 14:21:37 10° NE daylight
03 Feb - 15:57:27 10° NW 16:00:32 18° N 16:03:39 10° NE daylight
03 Feb - 17:39:07 10° NW 17:43:10 30° NNE 17:47:15 10° E visible
03 Feb - 19:20:23 10° WNW 19:24:58 67° SW 19:29:35 10° SE visible
04 Feb - 11:06:55 10° SSW 11:10:40 28° SE 11:14:27 10° ENE daylight
04 Feb - 12:47:40 10° WSW 12:51:59 51° NNW 12:56:22 10° NE daylight
04 Feb - 14:30:58 10° WNW 14:34:17 20° N 14:37:39 10° NE daylight
04 Feb - 16:13:45 10° NW 16:17:04 19° N 16:20:25 10° ENE daylight
04 Feb - 17:55:01 10° NW 17:59:26 47° NNE 18:03:54 10° ESE visible
04 Feb - 19:36:44 10° WNW 19:40:52 33° SW 19:45:02 10° SSE visible
05 Feb - 11:22:13 10° SW 11:26:31 57° SE 11:30:55 10° ENE daylight
05 Feb - 13:04:16 10° W 13:08:14 31° NNW 13:12:16 10° NE daylight
05 Feb - 14:47:46 10° NW 14:50:49 18° N 14:53:54 10° NE daylight
05 Feb - 16:29:48 10° NW 16:33:32 24° NNE 16:37:19 10° ENE daylight
05 Feb - 18:10:58 10° NW 18:15:34 83° NE 18:20:12 10° SE visible
05 Feb - 19:53:46 10° W 19:56:39 16° SW 19:59:32 10° S visible
06 Feb - 09:58:30 10° S 10:01:27 18° SE 10:04:25 10° E daylight
06 Feb - 11:38:08 10° WSW 11:42:32 73° NW 11:47:00 10° NE daylight
06 Feb - 13:21:05 10° WNW 13:24:37 23° NNW 13:28:13 10° NE daylight
06 Feb - 15:04:16 10° NW 15:07:22 18° N 15:10:30 10° NE daylight
06 Feb - 16:45:43 10° NW 16:49:54 35° NNE 16:54:07 10° E daylight
06 Feb - 18:27:06 10° WNW 18:31:33 51° SW 18:36:02 10° SE visible
